Location: Bettgenhausen
(50.6463°N, 7.5681°E)
Time: 09:08:22
(UTC+00:00)

STARLINK-44 - Pass Details

Date: 27 February 2020
Orbit: 529 x 530 km, 53.0° (Epoch: 04 April)

Event Time Altitude Azimuth Distance (km) Brightness Sun altitude
Rises 19:16:44 0° 284° (WNW) 2,672 8.7 -21.3°
Reaches altitude 10° 19:18:58 10° 287° (WNW) 1,782 7.4 -21.6°
Maximum altitude 19:23:00 68° 11° (N) 574 3.6 -22.2°
Enters shadow 19:23:05 68° 21° (NNE) 575 3.6 -22.2°
